Overview Statistics Trail Chart Weather Telemetry Raw packets
 

This is the latest recevied weather packets stored in our database for station/object KO4ZGL-13. If no packets are shown the sender has not sent any weather packets the latest 10 day(s).

<< 39 40 41 42 43 44 45 >>
Time Temp. Humidity Pressure Rain* Wind** Luminosity Snow
1788385039 33.89° C 70% 1017 hPa 0 mm - 234 W/m² -
1788384739 33.33° C 70% 1017 hPa 0 mm - 256 W/m² -
1788384438 33.33° C 71% 1017 hPa 0 mm - 271 W/m² -
1788384135 33.89° C 69% 1017 hPa 0 mm - 117 W/m² -
1788383831 33.89° C 70% 1017.1 hPa 0 mm - 290 W/m² -
1788383526 33.89° C 70% 1017.2 hPa 0 mm - 140 W/m² -
1788383220 35.56° C 68% 1017.2 hPa 0 mm - 140 W/m² -
1788382915 35.56° C 64% 1017 hPa 0 mm - 349 W/m² -
1788382614 34.44° C 70% 1017.1 hPa 0 mm - 368 W/m² -
1788382309 34.44° C 72% 1016.9 hPa 0 mm - 370 W/m² -
1788382004 35° C 64% 1016.9 hPa 0 mm - 370 W/m² -
1788381698 35.56° C 67% 1016.8 hPa 0 mm - 405 W/m² -
1788381394 35° C 69% 1017 hPa 0 mm - 425 W/m² -
1788381088 35.56° C 67% 1017.1 hPa 0 mm - 418 W/m² -
1788380798 36.11° C 59% 1017 hPa 0 mm - 425 W/m² -
1788380480 36.11° C 62% 1017.1 hPa 0 mm - 447 W/m² -
1788380176 36.11° C 61% 1017 hPa 0 mm - 449 W/m² -
1788379874 36.11° C 62% 1017.2 hPa 0 mm - 464 W/m² -
1788379564 35.56° C 63% 1017.4 hPa 0 mm - 466 W/m² -
1788379261 36.67° C 63% 1017.3 hPa 0 mm - 485 W/m² -
1788378956 36.11° C 60% 1017.5 hPa 0 mm - 501 W/m² -
1788378654 35.56° C 60% 1017.4 hPa 0 mm - 349 W/m² -
1788378348 35.56° C 66% 1017.4 hPa 0 mm - 500 W/m² -
1788378044 35.56° C 68% 1017.7 hPa 0 mm - 493 W/m² -
1788377740 35.56° C 67% 1017.6 hPa 0 mm - 517 W/m² -

* Rain latest hour (hover to see other rain measurements)
** Current wind speed in m/s (hover to see current wind gust speed)